Regional Weather Roundup
Issued by NWS

Home | Current Version | Previous Version | Graphics & Text | Print | Product List | Glossary On
Versions: 1 2 3 4 5 6 7 8 9 10 11 12 13 14 15 16 17 18 19 20 21 22 23 24 25 26 27 28 29 30 31 32 33 34 35 36 37 38 39 40 41 42 43 44 45 46 47 48 49 50
000
ASUS43 KMPX 252201
RWRMN
WEATHER ROUNDUP FOR MINNESOTA
NATIONAL WEATHER SERVICE TWIN CITIES/CHANHASSEN MN
400 PM CST SUN JAN 25 2015


NOTE: "FAIR" INDICATES FEW OR NO CLOUDS BELOW 12,000 FEET WITH NO
SIGNIFICANT WEATHER AND/OR OBSTRUCTIONS TO VISIBILITY. N/A MEANS
CURRENT SKY AND/OR WEATHER CONDITIONS ARE NOT AVAILABLE.

MNZ060>063-068>070-252300-
   Twin Cities Metro

CITY           SKY/WX    TMP DP  RH WIND       PRES   REMARKS
TWIN CITIES    PTCLDY    26  11  52 E3        30.03F
ST PAUL        CLEAR     26  11  52 E6        30.05F WCI  19
CRYSTAL        CLEAR     28  13  53 E3        30.02F
BLAINE         CLEAR     28  16  59 E8        30.02F WCI  20
LAKEVILLE      CLEAR     21  16  79 CALM      30.03S
EDEN PRAIRIE   CLEAR     27  13  55 NE5       30.02F WCI  22
SOUTH ST PAUL  CLEAR     26  13  57 E3        30.04S
LAKE ELMO      FAIR      27  14  59 E6        30.04S WCI  20
$$
MNZ001>005-007-008-013>017-022>024-027-028-252300-
   Northwest Minnesota

CITY           SKY/WX    TMP DP  RH WIND       PRES   REMARKS
BEMIDJI        CLOUDY    28  17  66 S7        29.96F WCI  20
HALLOCK        CLOUDY    19  12  73 S12       29.96S WCI   7
ROSEAU         CLOUDY    19  10  68 S9        29.94F WCI   9
WARROAD        CLOUDY    18   9  68 CALM      29.95S
THIEF RVR FALL PTCLDY    19  12  73 S6        29.96F WCI  11
CROOKSTON      MOCLDY    23  16  74 S10       29.97F WCI  12
FOSSTON        MOCLDY    23  18  80 S10       29.96F WCI  12
DETROIT LAKES  PTCLDY    28  21  74 SW5       29.98F WCI  23
MOORHEAD       MOSUNNY   27  19  74 S3        30.00F
PARK RAPIDS    MOCLDY    29  19  66 S6        29.96F WCI  23
MAHNOMEN       CLOUDY    25  18  76 SW9       29.97F WCI  15
$$
MNZ006-009>011-018-025>026-252300-
   North Central Minnesota

CITY           SKY/WX    TMP DP  RH WIND       PRES   REMARKS
BAUDETTE       CLOUDY    19   9  65 S6        29.92F WCI  11
FLAG ISLAND    CLOUDY    12   7  79 S8        29.95F WCI   1
INTL FALLS     CLOUDY    18   8  65 VRB3      29.97F
WASKISH        CLOUDY    19  12  73 CALM      29.96F
BIG FORK       MOCLDY    23  16  74 S6        29.98F WCI  16
LONGVILLE      MOCLDY    27  14  59 SW6       30.00R WCI  20
GRAND RAPIDS   MOCLDY    23  10  58 S5        29.98S WCI  17
CRANE LAKE     CLOUDY    19   9  63 CALM      30.01S
ORR            CLOUDY    21  10  63 S6        29.96S WCI  14
COOK           MOCLDY    21  10  63 S7        29.99S WCI  13
WALKER         MOCLDY    26  16  65 W6        29.98R WCI  20
$$
MNZ012-019>021-037-252300-
   Northeast Minnesota

CITY           SKY/WX    TMP DP  RH WIND       PRES   REMARKS
DULUTH         FLURRIES  20  13  74 E10       29.99F WCI   9
ELY            PTCLDY    18   7  62 S6        29.99S WCI   9
HIBBING        CLOUDY    22  12  65 VRB5      29.99F WCI  16
EVELETH        MOCLDY    21  12  68 SW7       30.00S WCI  13
DULUTH HARBOR  CLOUDY    23  16  74 NE3       30.06F
TWO HARBORS    LGT SNOW  21  16  79 E6        30.01F WCI  14
SILVER BAY     LGT SNOW  18  14  86 E3        30.02F
GRAND MARAIS     N/A     16   9  74 CALM      30.08F
G MARAIS ARPRT PTCLDY    10   0  61 CALM      29.98S
$$
MNZ029>031-032-039>041-046>048-054>057-064-252300-
   West Central Minnesota

CITY           SKY/WX    TMP DP  RH WIND       PRES   REMARKS
FERGUS FALLS   MOSUNNY   25  21  86 SW3       30.02F
WHEATON        MOSUNNY   25  18  74 CALM      30.04F
MORRIS         CLOUDY    27  23  86 NW5       30.03R WCI  21
ALEXANDRIA     CLOUDY    27  21  78 S6        30.01S WCI  20
ELBOW LAKE     CLOUDY    24  21  88 W5        30.01F WCI  19
WADENA         MOCLDY    27  19  74 S3        29.98F
GLENWOOD       CLOUDY    27  21  80 CALM      30.02R
APPLETON       CLOUDY    28  25  86 NW6       30.04R WCI  22
BENSON         CLOUDY    28  25  86 W5        30.04R WCI  23
ORTONVILLE     MOSUNNY   27  19  74 CALM      30.04R
MADISON        CLOUDY    30  28  93 NW6       30.05R WCI  24
WILLMAR        CLOUDY    28  21  74 CALM      30.05R
$$
MNZ033>034-036-042>043-049>051-058-059-252300-
   Central Minnesota

CITY           SKY/WX    TMP DP  RH WIND       PRES   REMARKS
ST CLOUD       CLEAR     27  15  61 CALM      30.02S
SAUK CENTRE    CLOUDY    26  19  76 W3        30.02S
PAYNESVILLE    CLOUDY    24  17  77 CALM      30.04R
AITKIN         PTCLDY    28  16  59 S3        29.99S
PINE RIVER     CLOUDY    25  16  68 SE3       30.03R
BRAINERD       CLEAR     26  14  60 CALM      30.01S
STAPLES        PTCLDY    27  16  63 SW3       29.99F
LONG PRAIRIE   CLOUDY    27  18  69 CALM      30.01S
LITTLE FALLS   CLEAR     28  14  54 CALM      30.02S
LITCHFIELD     SUNNY     27  19  74 CALM      30.04R
BUFFALO        CLEAR     27  15  62 CALM      30.04S
MAPLE LAKE     CLEAR     28  19  68 CALM      30.04R
$$
MNZ037-044-045-052-053-252300-
   East Central Minnesota

CITY           SKY/WX    TMP DP  RH WIND       PRES   REMARKS
PRINCETON      CLEAR     27  16  63 CALM      30.02S
MORA           CLEAR     27  14  59 CALM      30.03F
CAMBRIDGE      CLEAR     28  16  59 CALM      30.01S
RUSH CITY      PTCLDY    27  15  61 CALM      30.02F
MOOSE LAKE     MOCLDY    27  14  59 NE3       30.00S
HINCKLEY       FAIR      28  16  59 CALM      30.01F
CLOQUET        CLOUDY    19  12  73 E6        30.00F WCI  11
MCGREGOR       PTCLDY    27  16  63 SE3       30.01S
$$
MNZ071>073-080-081-089-090-097-098-252300-
   Southwest Minnesota

CITY           SKY/WX    TMP DP  RH WIND       PRES   REMARKS
MONTEVIDEO     PTSUNNY   34  32  93 NW7       30.05R WCI  28
GRANITE FALLS  CLOUDY    31  27  86 CALM      30.05S
CANBY          CLOUDY    29  26  88 CALM      30.05R
MARSHALL       CLOUDY    28  25  86 NW8       30.05S WCI  20
REDWOOD FALLS  CLOUDY    30  23  75 CALM      30.03S
OLIVIA         CLOUDY    28  23  80 CALM      30.03F
PIPESTONE      CLOUDY    32  28  86 N3        30.00S
WINDOM         CLOUDY    28  27  93 CALM      30.03R
WORTHINGTON    CLOUDY    30  27  86 N5        30.02S WCI  25
JACKSON        CLOUDY    30  27  86 N3        30.03R
TRACY          CLOUDY    29  28  96 NW6       30.03S FOG     WCI  23
SLAYTON        FOG       28  28  98 CALM      30.02S VSB 3/4
$$
MNZ065>067-074>077-082>085-091>093-252300-
   South Central Minnesota

CITY           SKY/WX    TMP DP  RH WIND       PRES   REMARKS
MANKATO        CLOUDY    27  18  69 NE5       30.03S WCI  21
NEW ULM        SUNNY     27  19  74 N3        30.04R
ST JAMES       CLOUDY    28  25  86 NW10      30.05R WCI  19
FAIRMONT       CLOUDY    28  21  74 N8        30.03R WCI  20
GLENCOE        SUNNY     27  19  72 NW3       30.04R
FARIBAULT      CLOUDY    23  18  80 N3        30.03S
OWATONNA       CLOUDY    23  16  74 N5        30.02R WCI  17
WASECA         CLOUDY    25  19  80 N5        30.04R WCI  19
ALBERT LEA     CLOUDY    27  23  86 N6        30.01R WCI  20
$$
MNZ078>079-086>088-094>096-252300-
   Southeast Minnesota

CITY           SKY/WX    TMP DP  RH WIND       PRES   REMARKS
ROCHESTER      CLOUDY    26  17  68 N7        30.00R WCI  18
RED WING       CLOUDY    25  14  63 E6        30.03F WCI  18
STANTON        CLOUDY    25  17  71 N7        30.02S WCI  17
DODGE CENTER   CLOUDY    25  19  80 NE8       30.01R WCI  16
WINONA         CLEAR     30  18  59 E5        30.05R WCI  25
AUSTIN         CLOUDY    25  21  86 N6        30.01R WCI  18
PRESTON        CLOUDY    26  19  76 N10       30.00R WCI  16
$$
ABBREVIATIONS USED IN REMARKS
   TC - TEMPERATURES IN CELSIUS
  WCI - WIND CHILL INDEX
   HX - HEAT INDEX
  VSB - VISIBILITY
$$


USA.gov is the U.S. government's official web portal to all federal, state and local government web resources and services.